Weiss Lake Weather Center

Moon Phase Calendar



Weiss Lake Water Level
Online Cameras

 


      

Current Conditions in Cedar Bluff
10/25/2021 2:28:45 AM

58°F
Feels Like 58
Clear
Humidity
99%
Pressure
30"
Wind
1.3 mph (E)
Dew Point
57°F
UV Index
0/10 (Low)
Visibility
6 mi

Hourly Forecast

Date & Time Mon, Oct 25
2:00 AM
Mon, Oct 25
3:00 AM
Mon, Oct 25
4:00 AM
Mon, Oct 25
5:00 AM
Mon, Oct 25
6:00 AM
Mon, Oct 25
7:00 AM
Mon, Oct 25
8:00 AM
Mon, Oct 25
9:00 AM
Mon, Oct 25
10:00 AM
Mon, Oct 25
11:00 AM
Mon, Oct 25
12:00 PM
Mon, Oct 25
1:00 PM
Mon, Oct 25
2:00 PM
Mon, Oct 25
3:00 PM
Mon, Oct 25
4:00 PM
Mon, Oct 25
5:00 PM
Mon, Oct 25
6:00 PM
Mon, Oct 25
7:00 PM
Mon, Oct 25
8:00 PM
Mon, Oct 25
9:00 PM
Mon, Oct 25
10:00 PM
Mon, Oct 25
11:00 PM
Tue, Oct 26
12:00 AM
Tue, Oct 26
1:00 AM
Tue, Oct 26
2:00 AM
Tue, Oct 26
3:00 AM
Tue, Oct 26
4:00 AM
Tue, Oct 26
5:00 AM
Tue, Oct 26
6:00 AM
Tue, Oct 26
7:00 AM
Tue, Oct 26
8:00 AM
Tue, Oct 26
9:00 AM
Tue, Oct 26
10:00 AM
Tue, Oct 26
11:00 AM
Tue, Oct 26
12:00 PM
Tue, Oct 26
1:00 PM
Tue, Oct 26
2:00 PM
Tue, Oct 26
3:00 PM
Tue, Oct 26
4:00 PM
Tue, Oct 26
5:00 PM
Tue, Oct 26
6:00 PM
Tue, Oct 26
7:00 PM
Tue, Oct 26
8:00 PM
Tue, Oct 26
9:00 PM
Tue, Oct 26
10:00 PM
Tue, Oct 26
11:00 PM
Wed, Oct 27
12:00 AM
Wed, Oct 27
1:00 AM
Condition
Clear

Clear

Clear

Clear

Clear

Clear

Clear

Clouds

Clouds

Clouds

Clouds

Rain

Clouds

Rain

Rain

Clouds

Clouds

Clouds

Clear

Clear

Clear

Clear

Clear

Clear

Clouds

Clouds

Clouds

Clouds

Clouds

Clouds

Clouds

Clouds

Clouds

Clouds

Clouds

Clouds

Clear

Clear

Clear

Clear

Clouds

Clouds

Clouds

Clouds

Clouds

Clouds

Clouds

Clouds
Temperature 58°F57°F56°F56°F55°F55°F58°F64°F67°F72°F73°F70°F70°F70°F70°F70°F65°F62°F60°F57°F55°F53°F51°F50°F50°F52°F50°F48°F47°F46°F52°F55°F59°F62°F65°F66°F68°F67°F66°F63°F56°F54°F52°F51°F51°F50°F50°F49°F
Feels Like 58°F57°F56°F55°F55°F54°F58°F64°F67°F73°F73°F71°F70°F71°F71°F70°F66°F62°F60°F56°F54°F52°F50°F49°F49°F50°F48°F46°F44°F44°F50°F54°F57°F60°F63°F65°F66°F66°F65°F61°F55°F53°F51°F50°F50°F49°F47°F47°F
Cloudiness 3%3%3%7%8%7%6%28%44%46%55%63%100%100%89%70%56%49%0%0%0%0%0%0%28%57%56%44%35%32%73%75%57%43%34%28%0%0%0%2%14%28%98%98%98%99%99%99%
Visibility 6 mi6 mi6 mi6 mi6 mi6 mi6 mi6 mi6 mi6 mi6 mi6 mi6 mi6 mi6 mi6 mi6 mi6 mi6 mi6 mi6 mi6 mi6 mi6 mi6 mi6 mi6 mi6 mi6 mi6 mi6 mi6 mi6 mi6 mi6 mi6 mi6 mi6 mi6 mi6 mi6 mi6 mi6 mi6 mi6 mi6 mi6 mi6 mi
Precipitation 0%0%0%0%0%0%0%0%0%4%15%31%53%97%87%82%71%45%0%0%0%0%0%0%0%0%0%0%0%0%0%0%0%0%0%0%0%0%0%0%0%0%0%0%0%0%0%0%
Humidity 99%96%93%91%90%89%84%78%77%72%74%84%86%86%84%82%82%81%82%82%79%81%83%86%84%77%82%88%91%92%77%69%62%56%51%47%45%45%49%58%71%75%79%81%80%81%81%82%
Dew Point 57°F56°F54°F53°F52°F51°F53°F56°F60°F62°F63°F64°F65°F65°F65°F64°F59°F56°F54°F51°F48°F47°F46°F46°F45°F44°F44°F44°F44°F44°F44°F45°F45°F45°F45°F45°F45°F45°F46°F47°F46°F46°F45°F45°F44°F44°F44°F43°F
Pressure 30"30"30"29.97"29.97"29.94"29.94"29.94"29.91"29.91"29.85"29.85"29.83"29.83"29.83"29.83"29.85"29.88"29.91"29.94"29.97"29.97"29.97"29.97"29.97"29.97"29.97"29.97"30"30"30.03"30.03"30.03"30"29.97"29.94"29.94"29.91"29.91"29.91"29.94"29.97"29.97"29.97"29.97"29.97"29.94"29.94"
Wind Speed 1.3 mph2 mph1.3 mph1.9 mph2 mph3.3 mph1.6 mph4.1 mph8 mph11.1 mph11.2 mph9.5 mph9.5 mph10.1 mph9.8 mph9.7 mph10 mph9.1 mph10.3 mph9.7 mph9.1 mph7.7 mph8.1 mph7.7 mph7.8 mph7.8 mph5 mph4.3 mph5.1 mph4.8 mph6.7 mph7.3 mph7.7 mph8 mph8.4 mph8.8 mph9 mph9.2 mph8.5 mph7 mph5.3 mph5 mph4.8 mph3.6 mph3.7 mph4.4 mph5.8 mph4.9 mph
Wind
Direction
97°
E
121°
ESE
150°
SSE
158°
SSE
176°
S
179°
S
183°
S
224°
SW
210°
SSW
223°
SW
230°
SW
245°
WSW
250°
WSW
265°
W
279°
W
283°
WNW
307°
NW
311°
NW
323°
NW
330°
NNW
326°
NW
321°
NW
326°
NW
330°
NNW
332°
NNW
339°
NNW
334°
NNW
296°
WNW
295°
WNW
315°
NW
348°
NNW

N
359°
N
351°
N
349°
N
347°
NNW
342°
NNW
343°
NNW
342°
NNW
340°
NNW
324°
NW
347°
NNW

N

N
10°
N
14°
NNE
25°
NNE
22°
NNE

Daily Forecast

Date High Low Precip. Humidity
Today
Oct 25

Rain
73 °F
53 °F
97%
74%
Tuesday
Oct 26

Clouds
68 °F
46 °F
0%
51%
Wednesday
Oct 27

Rain
71 °F
45 °F
90%
42%
Thursday
Oct 28

Rain
67 °F
51 °F
100%
71%
Friday
Oct 29

Rain
50 °F
49 °F
100%
83%
Saturday
Oct 30

Rain
53 °F
50 °F
47%
93%
Sunday
Oct 31

Clear
64 °F
45 °F
0%
50%
Monday
Nov 1

Clear
68 °F
47 °F
0%
50%
Tuesday
Nov 2

Clear
70 °F
49 °F
0%
50%
Wednesday
Nov 3

Clouds
63 °F
52 °F
0%
76%
Thursday
Nov 4

Clouds
60 °F
46 °F
0%
44%
Friday
Nov 5

Clouds
58 °F
42 °F
0%
30%
Saturday
Nov 6

Clear
57 °F
37 °F
0%
40%
Sunday
Nov 7

Clear
56 °F
34 °F
0%
32%
Monday
Nov 8

Clouds
61 °F
35 °F
0%
33%
Tuesday
Nov 9

Rain
51 °F
44 °F
100%
91%

Temperature 8-14 Day Outlook



Precipitation 8-14 Day Outlook




Quick Links
Weiss Lake News
Weiss Lake Photos
Weiss Lake Videos




About Us
Contact Us
Site Map
Search Site
Advertise With Us
   
www.LakeWeiss.info
THE WEISS LAKE WEBSITE

Copyright 2021, Lakes Online
Privacy    |    Legal